Volver al catálogo

DELTA 1 DEB

LostLEO
NORAD 42086·DEBRIS·🇺🇸 United States

Lanzado Dec 15, 1968 desde Vandenberg Space Force Base

Loading…

Próximos Pases (próximas 24 horas)

TLE

ObsoletoSource: Space-Track

Época: Aug 1, 2026, 23:24 UTC

1 42086U 68114N   26213.97561172  .00000130  00000-0  19113-2 0  9993
2 42086 102.1342 132.4875 0350455  13.9843 347.0609 11.93578991218558

Sigue DELTA 1 DEB en tiempo real con AllMySat

Download on the App Store